Location: Clermont
(50.2608°N, 4.3172°E)
Time: 04:16:00
(UTC+00:00)

Cosmos 1437 Rocket - Pass Details

Date: 13 August 2020
Orbit: 505 x 563 km, 81.2° (Epoch: 19 September)

Event Time Altitude Azimuth Distance (km) Brightness Sun altitude
Rises 21:17:27 0° 343° (NNW) 2,633 7.6 -17.5°
Reaches altitude 10° 21:19:38 10° 338° (NNW) 1,737 6.5 -17.8°
Maximum altitude 21:23:19 51° 263° (W) 649 3.3 -18.1°
Enters shadow 21:24:58 28° 202° (SSW) 966 3.8 -18.3°
